Year,Month,Day,Hour,Minute,Value (Times are PST for temperature in C)
2019,06,24,00,00,12.20
2019,06,24,00,01,12.20
2019,06,24,00,02,12.20
2019,06,24,00,03,12.20
2019,06,24,00,04,12.20
2019,06,24,00,05,12.20
2019,06,24,00,06,12.20
2019,06,24,00,07,12.20
2019,06,24,00,08,12.20
2019,06,24,00,09,12.10
2019,06,24,00,10,12.10
2019,06,24,00,11,12.10
2019,06,24,00,12,12.10
2019,06,24,00,13,12.10
2019,06,24,00,14,12.10
2019,06,24,00,15,12.10
2019,06,24,00,16,12.10
2019,06,24,00,17,12.10
2019,06,24,00,18,12.10
2019,06,24,00,19,12.10
2019,06,24,00,20,12.10
2019,06,24,00,21,12.00
2019,06,24,00,22,12.00
2019,06,24,00,23,12.00
2019,06,24,00,24,12.00
2019,06,24,00,25,12.00
2019,06,24,00,26,11.90
2019,06,24,00,27,11.90
2019,06,24,00,28,11.90
2019,06,24,00,29,11.90
2019,06,24,00,30,11.90
2019,06,24,00,31,11.90
2019,06,24,00,32,11.90
2019,06,24,00,33,11.90
2019,06,24,00,34,11.90
2019,06,24,00,35,11.90
2019,06,24,00,36,11.90
2019,06,24,00,37,11.80
2019,06,24,00,38,11.80
2019,06,24,00,39,11.80
2019,06,24,00,40,11.80
2019,06,24,00,41,11.80
2019,06,24,00,42,11.80
2019,06,24,00,43,11.80
2019,06,24,00,44,11.80
2019,06,24,00,45,11.80
2019,06,24,00,46,11.80
2019,06,24,00,47,11.80
2019,06,24,00,48,11.80
2019,06,24,00,49,11.80
2019,06,24,00,50,11.70
2019,06,24,00,51,11.80
2019,06,24,00,52,11.70
2019,06,24,00,53,11.70
2019,06,24,00,54,11.70
2019,06,24,00,55,11.70
2019,06,24,00,56,11.70
2019,06,24,00,57,11.70
2019,06,24,00,58,11.70
2019,06,24,00,59,11.70
2019,06,24,01,00,11.70
2019,06,24,01,01,11.70
2019,06,24,01,02,11.60
2019,06,24,01,03,11.60
2019,06,24,01,04,11.60
2019,06,24,01,05,11.60
2019,06,24,01,06,11.60
2019,06,24,01,07,11.60
2019,06,24,01,08,11.60
2019,06,24,01,09,11.60
2019,06,24,01,10,11.60
2019,06,24,01,11,11.60
2019,06,24,01,12,11.60
2019,06,24,01,13,11.60
2019,06,24,01,14,11.60
2019,06,24,01,15,11.60
2019,06,24,01,16,11.60
2019,06,24,01,17,11.60
2019,06,24,01,18,11.60
2019,06,24,01,19,11.60
2019,06,24,01,20,11.60
2019,06,24,01,21,11.60
2019,06,24,01,22,11.60
2019,06,24,01,23,11.60
2019,06,24,01,24,11.60
2019,06,24,01,25,11.60
2019,06,24,01,26,11.60
2019,06,24,01,27,11.60
2019,06,24,01,28,11.60
2019,06,24,01,29,11.50
2019,06,24,01,30,11.50
2019,06,24,01,31,11.50
2019,06,24,01,32,11.50
2019,06,24,01,33,11.50
2019,06,24,01,34,11.40
2019,06,24,01,35,11.40
2019,06,24,01,36,11.40
2019,06,24,01,37,11.40
2019,06,24,01,38,11.40
2019,06,24,01,39,11.40
2019,06,24,01,40,11.40
2019,06,24,01,41,11.40
2019,06,24,01,42,11.40
2019,06,24,01,43,11.40
2019,06,24,01,44,11.30
2019,06,24,01,45,11.30
2019,06,24,01,46,11.30
2019,06,24,01,47,11.30
2019,06,24,01,48,11.30
2019,06,24,01,49,11.30
2019,06,24,01,50,11.30
2019,06,24,01,51,11.30
2019,06,24,01,52,11.30
2019,06,24,01,53,11.30
2019,06,24,01,54,11.30
2019,06,24,01,55,11.30
2019,06,24,01,56,11.30
2019,06,24,01,57,11.30
2019,06,24,01,58,11.30
2019,06,24,01,59,11.30
2019,06,24,02,00,11.30
2019,06,24,02,01,11.30
2019,06,24,02,02,11.30
2019,06,24,02,03,11.30
2019,06,24,02,04,11.30
2019,06,24,02,05,11.30
2019,06,24,02,06,11.30
2019,06,24,02,07,11.30
2019,06,24,02,08,11.30
2019,06,24,02,09,11.30
2019,06,24,02,10,11.30
2019,06,24,02,11,11.30
2019,06,24,02,12,11.30
2019,06,24,02,13,11.30
2019,06,24,02,14,11.30
2019,06,24,02,15,11.20
2019,06,24,02,16,11.30
2019,06,24,02,17,11.20
2019,06,24,02,18,11.20
2019,06,24,02,19,11.20
2019,06,24,02,20,11.20
2019,06,24,02,21,11.20
2019,06,24,02,22,11.20
2019,06,24,02,23,11.20
2019,06,24,02,24,11.20
2019,06,24,02,25,11.20
2019,06,24,02,26,11.20
2019,06,24,02,27,11.20
2019,06,24,02,28,11.20
2019,06,24,02,29,11.20
2019,06,24,02,30,11.20
2019,06,24,02,31,11.20
2019,06,24,02,32,11.20
2019,06,24,02,33,11.20
2019,06,24,02,34,11.20
2019,06,24,02,35,11.20
2019,06,24,02,36,11.10
2019,06,24,02,37,11.10
2019,06,24,02,38,11.10
2019,06,24,02,39,11.10
2019,06,24,02,40,11.10
2019,06,24,02,41,11.10
2019,06,24,02,42,11.00
2019,06,24,02,43,11.00
2019,06,24,02,44,11.00
2019,06,24,02,45,11.00
2019,06,24,02,46,11.00
2019,06,24,02,47,10.90
2019,06,24,02,48,10.90
2019,06,24,02,49,10.90
2019,06,24,02,50,10.90
2019,06,24,02,51,10.90
2019,06,24,02,52,10.90
2019,06,24,02,53,10.90
2019,06,24,02,54,10.90
2019,06,24,02,55,10.80
2019,06,24,02,56,10.80
2019,06,24,02,57,10.80
2019,06,24,02,58,10.80
2019,06,24,02,59,10.80
2019,06,24,03,00,10.80
2019,06,24,03,01,10.80
2019,06,24,03,02,10.80
2019,06,24,03,03,10.80
2019,06,24,03,04,10.80
2019,06,24,03,05,10.80
2019,06,24,03,06,10.70
2019,06,24,03,07,10.70
2019,06,24,03,08,10.70
2019,06,24,03,09,10.70
2019,06,24,03,10,10.70
2019,06,24,03,11,10.70
2019,06,24,03,12,10.70
2019,06,24,03,13,10.60
2019,06,24,03,14,10.60
2019,06,24,03,15,10.60
2019,06,24,03,16,10.60
2019,06,24,03,17,10.60
2019,06,24,03,18,10.60
2019,06,24,03,19,10.60
2019,06,24,03,20,10.50
2019,06,24,03,21,10.50
2019,06,24,03,22,10.50
2019,06,24,03,23,10.50
2019,06,24,03,24,10.50
2019,06,24,03,25,10.40
2019,06,24,03,26,10.50
2019,06,24,03,27,10.50
2019,06,24,03,28,10.40
2019,06,24,03,29,10.40
2019,06,24,03,30,10.40
2019,06,24,03,31,10.50
2019,06,24,03,32,10.50
2019,06,24,03,33,10.50
2019,06,24,03,34,10.50
2019,06,24,03,35,10.50
2019,06,24,03,36,10.50
2019,06,24,03,37,10.50
2019,06,24,03,38,10.60
2019,06,24,03,39,10.60
2019,06,24,03,40,10.60
2019,06,24,03,41,10.60
2019,06,24,03,42,10.60
2019,06,24,03,43,10.60
2019,06,24,03,44,10.60
2019,06,24,03,45,10.60
2019,06,24,03,46,10.60
2019,06,24,03,47,10.60
2019,06,24,03,48,10.60
2019,06,24,03,49,10.60
2019,06,24,03,50,10.60
2019,06,24,03,51,10.60
2019,06,24,03,52,10.60
2019,06,24,03,53,10.50
2019,06,24,03,54,10.60
2019,06,24,03,55,10.50
2019,06,24,03,56,10.50
2019,06,24,03,57,10.50
2019,06,24,03,58,10.50
2019,06,24,03,59,10.50
2019,06,24,04,00,10.40
2019,06,24,04,01,10.40
2019,06,24,04,02,10.40
2019,06,24,04,03,10.40
2019,06,24,04,04,10.40
2019,06,24,04,05,10.40
2019,06,24,04,06,10.40
2019,06,24,04,07,10.30
2019,06,24,04,08,10.30
2019,06,24,04,09,10.30
2019,06,24,04,10,10.30
2019,06,24,04,11,10.30
2019,06,24,04,12,10.20
2019,06,24,04,13,10.20
2019,06,24,04,14,10.20
2019,06,24,04,15,10.20
2019,06,24,04,16,10.10
2019,06,24,04,17,10.10
2019,06,24,04,18,10.10
2019,06,24,04,19,10.10
2019,06,24,04,20,10.10
2019,06,24,04,21,10.00
2019,06,24,04,22,10.00
2019,06,24,04,23,10.00
2019,06,24,04,24,9.90
2019,06,24,04,25,9.90
2019,06,24,04,26,9.90
2019,06,24,04,27,9.90
2019,06,24,04,28,9.90
2019,06,24,04,29,9.90
2019,06,24,04,30,9.80
2019,06,24,04,31,9.80
2019,06,24,04,32,9.80
2019,06,24,04,33,9.80
2019,06,24,04,34,9.80
2019,06,24,04,35,9.80
2019,06,24,04,36,9.80
2019,06,24,04,37,9.70
2019,06,24,04,38,9.70
2019,06,24,04,39,9.70
2019,06,24,04,40,9.70
2019,06,24,04,41,9.70
2019,06,24,04,42,9.60
2019,06,24,04,43,9.60
2019,06,24,04,44,9.60
2019,06,24,04,45,9.60
2019,06,24,04,46,9.60
2019,06,24,04,47,9.60
2019,06,24,04,48,9.50
2019,06,24,04,49,9.50
2019,06,24,04,50,9.50
2019,06,24,04,51,9.50
2019,06,24,04,52,9.50
2019,06,24,04,53,9.40
2019,06,24,04,54,9.40
2019,06,24,04,55,9.40
2019,06,24,04,56,9.40
2019,06,24,04,57,9.40
2019,06,24,04,58,9.40
2019,06,24,04,59,9.40
2019,06,24,05,00,9.30
2019,06,24,05,01,9.30
2019,06,24,05,02,9.30
2019,06,24,05,03,9.30
2019,06,24,05,04,9.30
2019,06,24,05,05,9.30
2019,06,24,05,06,9.30
2019,06,24,05,07,9.30
2019,06,24,05,08,9.30
2019,06,24,05,09,9.30
2019,06,24,05,10,9.30
2019,06,24,05,11,9.20
2019,06,24,05,12,9.20
2019,06,24,05,13,9.20
2019,06,24,05,14,9.20
2019,06,24,05,15,9.20
2019,06,24,05,16,9.20
2019,06,24,05,17,9.20
2019,06,24,05,18,9.20
2019,06,24,05,19,9.20
2019,06,24,05,20,9.10
2019,06,24,05,21,9.10
2019,06,24,05,22,9.10
2019,06,24,05,23,9.10
2019,06,24,05,24,9.10
2019,06,24,05,25,9.10
2019,06,24,05,26,9.10
2019,06,24,05,27,9.10
2019,06,24,05,28,9.10
2019,06,24,05,29,9.10
2019,06,24,05,30,9.10
2019,06,24,05,31,9.10
2019,06,24,05,32,9.10
2019,06,24,05,33,9.10
2019,06,24,05,34,9.00
2019,06,24,05,35,9.00
2019,06,24,05,36,9.00
2019,06,24,05,37,9.00
2019,06,24,05,38,9.00
2019,06,24,05,39,9.00
2019,06,24,05,40,9.00
2019,06,24,05,41,9.00
2019,06,24,05,42,9.00
2019,06,24,05,43,8.90
2019,06,24,05,44,8.90
2019,06,24,05,45,8.90
2019,06,24,05,46,8.90
2019,06,24,05,47,8.90
2019,06,24,05,48,8.90
2019,06,24,05,49,8.90
2019,06,24,05,50,8.90
2019,06,24,05,51,8.90
2019,06,24,05,52,8.90
2019,06,24,05,53,8.90
2019,06,24,05,54,8.90
2019,06,24,05,55,8.90
2019,06,24,05,56,8.90
2019,06,24,05,57,8.90
2019,06,24,05,58,8.90
2019,06,24,05,59,8.90
2019,06,24,06,00,8.90
2019,06,24,06,01,8.90
2019,06,24,06,02,8.90
2019,06,24,06,03,8.90
2019,06,24,06,04,8.90
2019,06,24,06,05,8.90
2019,06,24,06,06,8.90
2019,06,24,06,07,8.90
2019,06,24,06,08,8.90
2019,06,24,06,09,8.90
2019,06,24,06,10,8.90
2019,06,24,06,11,8.90
2019,06,24,06,12,8.90
2019,06,24,06,13,8.90
2019,06,24,06,14,8.90
2019,06,24,06,15,8.90
2019,06,24,06,16,8.90
2019,06,24,06,17,8.90
2019,06,24,06,18,8.90
2019,06,24,06,19,8.90
2019,06,24,06,20,8.90
2019,06,24,06,21,8.90
2019,06,24,06,22,8.90
2019,06,24,06,23,8.90
2019,06,24,06,24,9.00
2019,06,24,06,25,9.00
2019,06,24,06,26,9.00
2019,06,24,06,27,9.00
2019,06,24,06,28,9.00
2019,06,24,06,29,9.00
2019,06,24,06,30,9.00
2019,06,24,06,31,9.10
2019,06,24,06,32,9.10
2019,06,24,06,33,9.20
2019,06,24,06,34,9.30
2019,06,24,06,35,9.30
2019,06,24,06,36,9.30
2019,06,24,06,37,9.40
2019,06,24,06,38,9.40
2019,06,24,06,39,9.50
2019,06,24,06,40,9.50
2019,06,24,06,41,9.60
2019,06,24,06,42,9.60
2019,06,24,06,43,9.70
2019,06,24,06,44,9.70
2019,06,24,06,45,9.80
2019,06,24,06,46,9.80
2019,06,24,06,47,9.90
2019,06,24,06,48,10.00
2019,06,24,06,49,10.00
2019,06,24,06,50,10.10
2019,06,24,06,51,10.10
2019,06,24,06,52,10.10
2019,06,24,06,53,10.20
2019,06,24,06,54,10.20
2019,06,24,06,55,10.20
2019,06,24,06,56,10.20
2019,06,24,06,57,10.30
2019,06,24,06,58,10.30
2019,06,24,06,59,10.30
2019,06,24,07,00,10.30
2019,06,24,07,01,10.40
2019,06,24,07,02,10.40
2019,06,24,07,03,10.40
2019,06,24,07,04,10.40
2019,06,24,07,05,10.50
2019,06,24,07,06,10.50
2019,06,24,07,07,10.50
2019,06,24,07,08,10.60
2019,06,24,07,09,10.60
2019,06,24,07,10,10.60
2019,06,24,07,11,10.70
2019,06,24,07,12,10.70
2019,06,24,07,13,10.70
2019,06,24,07,14,10.80
2019,06,24,07,15,10.80
2019,06,24,07,16,10.90
2019,06,24,07,17,10.90
2019,06,24,07,18,11.00
2019,06,24,07,19,11.10
2019,06,24,07,20,11.10
2019,06,24,07,21,11.20
2019,06,24,07,22,11.30
2019,06,24,07,23,11.30
2019,06,24,07,24,11.40
2019,06,24,07,25,11.50
2019,06,24,07,26,11.50
2019,06,24,07,27,11.60
2019,06,24,07,28,11.70
2019,06,24,07,29,11.70
2019,06,24,07,30,11.80
2019,06,24,07,31,11.80
2019,06,24,07,32,11.90
2019,06,24,07,33,11.90
2019,06,24,07,34,12.00
2019,06,24,07,35,12.00
2019,06,24,07,36,12.10
2019,06,24,07,37,12.10
2019,06,24,07,38,12.20
2019,06,24,07,39,12.20
2019,06,24,07,40,12.30
2019,06,24,07,41,12.30
2019,06,24,07,42,12.30
2019,06,24,07,43,12.40
2019,06,24,07,44,12.40
2019,06,24,07,45,12.50
2019,06,24,07,46,12.50
2019,06,24,07,47,12.60
2019,06,24,07,48,12.60
2019,06,24,07,49,12.60
2019,06,24,07,50,12.70
2019,06,24,07,51,12.70
2019,06,24,07,52,12.80
2019,06,24,07,53,12.80
2019,06,24,07,54,12.80
2019,06,24,07,55,12.90
2019,06,24,07,56,12.90
2019,06,24,07,57,12.90
2019,06,24,07,58,12.90
2019,06,24,07,59,13.00
2019,06,24,08,00,13.00
2019,06,24,08,01,13.00
2019,06,24,08,02,13.00
2019,06,24,08,03,13.10
2019,06,24,08,04,13.10
2019,06,24,08,05,13.10
2019,06,24,08,06,13.10
2019,06,24,08,07,13.10
2019,06,24,08,08,13.20
2019,06,24,08,09,13.20
2019,06,24,08,10,13.20
2019,06,24,08,11,13.30
2019,06,24,08,12,13.30
2019,06,24,08,13,13.30
2019,06,24,08,14,13.40
2019,06,24,08,15,13.40
2019,06,24,08,16,13.50
2019,06,24,08,17,13.60
2019,06,24,08,18,13.60
2019,06,24,08,19,13.60
2019,06,24,08,20,13.70
2019,06,24,08,21,13.70
2019,06,24,08,22,13.80
2019,06,24,08,23,13.80
2019,06,24,08,24,13.90
2019,06,24,08,25,13.90
2019,06,24,08,26,14.00
2019,06,24,08,27,14.00
2019,06,24,08,28,14.10
2019,06,24,08,29,14.20
2019,06,24,08,30,14.30
2019,06,24,08,31,14.30
2019,06,24,08,32,14.30
2019,06,24,08,33,14.40
2019,06,24,08,34,14.40
2019,06,24,08,35,14.40
2019,06,24,08,36,14.40
2019,06,24,08,37,14.40
2019,06,24,08,38,14.40
2019,06,24,08,39,14.50
2019,06,24,08,40,14.50
2019,06,24,08,41,14.50
2019,06,24,08,42,14.60
2019,06,24,08,43,14.60
2019,06,24,08,44,14.60
2019,06,24,08,45,14.70
2019,06,24,08,46,14.70
2019,06,24,08,47,14.80
2019,06,24,08,48,14.80
2019,06,24,08,49,14.90
2019,06,24,08,50,14.90
2019,06,24,08,51,14.90
2019,06,24,08,52,14.90
2019,06,24,08,53,14.90
2019,06,24,08,54,14.90
2019,06,24,08,55,14.90
2019,06,24,08,56,14.90
2019,06,24,08,57,14.90
2019,06,24,08,58,14.90
2019,06,24,08,59,14.90
2019,06,24,09,00,14.90
2019,06,24,09,01,14.90
2019,06,24,09,02,14.90
2019,06,24,09,03,14.90
2019,06,24,09,04,15.00
2019,06,24,09,05,15.00
2019,06,24,09,06,15.10
2019,06,24,09,07,15.10
2019,06,24,09,08,15.10
2019,06,24,09,09,15.20
2019,06,24,09,10,15.20
2019,06,24,09,11,15.30
2019,06,24,09,12,15.30
2019,06,24,09,13,15.40
2019,06,24,09,14,15.40
2019,06,24,09,15,15.40
2019,06,24,09,16,15.50
2019,06,24,09,17,15.50
2019,06,24,09,18,15.50
2019,06,24,09,19,15.60
2019,06,24,09,20,15.60
2019,06,24,09,21,15.60
2019,06,24,09,22,15.70
2019,06,24,09,23,15.70
2019,06,24,09,24,15.70
2019,06,24,09,25,15.80
2019,06,24,09,26,15.80
2019,06,24,09,27,15.80
2019,06,24,09,28,15.80
2019,06,24,09,29,15.80
2019,06,24,09,30,15.90
2019,06,24,09,31,15.90
2019,06,24,09,32,15.90
2019,06,24,09,33,15.90
2019,06,24,09,34,15.90
2019,06,24,09,35,16.00
2019,06,24,09,36,16.00
2019,06,24,09,37,16.00
2019,06,24,09,38,16.10
2019,06,24,09,39,16.10
2019,06,24,09,40,16.10
2019,06,24,09,41,16.20
2019,06,24,09,42,16.20
2019,06,24,09,43,16.20
2019,06,24,09,44,16.20
2019,06,24,09,45,16.20
2019,06,24,09,46,16.20
2019,06,24,09,47,16.20
2019,06,24,09,48,16.20
2019,06,24,09,49,16.20
2019,06,24,09,50,16.30
2019,06,24,09,51,16.30
2019,06,24,09,52,16.30
2019,06,24,09,53,16.30
2019,06,24,09,54,16.30
2019,06,24,09,55,16.40
2019,06,24,09,56,16.40
2019,06,24,09,57,16.40
2019,06,24,09,58,16.40
2019,06,24,09,59,16.50
2019,06,24,10,00,16.50
2019,06,24,10,01,16.50
2019,06,24,10,02,16.50
2019,06,24,10,03,16.50
2019,06,24,10,04,16.60
2019,06,24,10,05,16.60
2019,06,24,10,06,16.60
2019,06,24,10,07,16.60
2019,06,24,10,08,16.60
2019,06,24,10,09,16.60
2019,06,24,10,10,16.70
2019,06,24,10,11,16.80
2019,06,24,10,12,16.80
2019,06,24,10,13,16.90
2019,06,24,10,14,16.90
2019,06,24,10,15,17.00
2019,06,24,10,16,17.10
2019,06,24,10,17,17.10
2019,06,24,10,18,17.20
2019,06,24,10,19,17.30
2019,06,24,10,20,17.30
2019,06,24,10,21,17.30
2019,06,24,10,22,17.40
2019,06,24,10,23,17.40
2019,06,24,10,24,17.50
2019,06,24,10,25,17.50
2019,06,24,10,26,17.50
2019,06,24,10,27,17.60
2019,06,24,10,28,17.60
2019,06,24,10,29,17.70
2019,06,24,10,30,17.70
2019,06,24,10,31,17.80
2019,06,24,10,32,17.80
2019,06,24,10,33,17.90
2019,06,24,10,34,17.90
2019,06,24,10,35,18.00
2019,06,24,10,36,18.00
2019,06,24,10,37,18.10
2019,06,24,10,38,18.20
2019,06,24,10,39,18.20
2019,06,24,10,40,18.20
2019,06,24,10,41,18.30
2019,06,24,10,42,18.40
2019,06,24,10,43,18.50
2019,06,24,10,44,18.60
2019,06,24,10,45,18.70
2019,06,24,10,46,18.70
2019,06,24,10,47,18.80
2019,06,24,10,48,18.80
2019,06,24,10,49,18.80
2019,06,24,10,50,18.80
2019,06,24,10,51,18.80
2019,06,24,10,52,18.80
2019,06,24,10,53,18.80
2019,06,24,10,54,18.80
2019,06,24,10,55,18.80
2019,06,24,10,56,18.90
2019,06,24,10,57,19.00
2019,06,24,10,58,19.10
2019,06,24,10,59,19.10
2019,06,24,11,00,19.20
2019,06,24,11,01,19.20
2019,06,24,11,02,19.20
2019,06,24,11,03,19.30
2019,06,24,11,04,19.40
2019,06,24,11,05,19.50
2019,06,24,11,06,19.50
2019,06,24,11,07,19.60
2019,06,24,11,08,19.70
2019,06,24,11,09,19.80
2019,06,24,11,10,19.90
2019,06,24,11,11,20.10
2019,06,24,11,12,20.20
2019,06,24,11,13,20.30
2019,06,24,11,14,20.30
2019,06,24,11,15,20.30
2019,06,24,11,16,20.40
2019,06,24,11,17,20.40
2019,06,24,11,18,20.50
2019,06,24,11,19,20.60
2019,06,24,11,20,20.70
2019,06,24,11,21,20.70
2019,06,24,11,22,20.80
2019,06,24,11,23,20.90
2019,06,24,11,24,21.00
2019,06,24,11,25,21.10
2019,06,24,11,26,21.20
2019,06,24,11,27,21.20
2019,06,24,11,28,21.30
2019,06,24,11,29,21.30
2019,06,24,11,30,21.20
2019,06,24,11,31,21.20
2019,06,24,11,32,21.10
2019,06,24,11,33,21.00
2019,06,24,11,34,21.00
2019,06,24,11,35,20.90
2019,06,24,11,36,20.90
2019,06,24,11,37,20.80
2019,06,24,11,38,20.70
2019,06,24,11,39,20.70
2019,06,24,11,40,20.70
2019,06,24,11,41,20.70
2019,06,24,11,42,20.70
2019,06,24,11,43,20.70
2019,06,24,11,44,20.80
2019,06,24,11,45,20.80
2019,06,24,11,46,20.80
2019,06,24,11,47,20.80
2019,06,24,11,48,20.80
2019,06,24,11,49,20.80
2019,06,24,11,50,20.80
2019,06,24,11,51,20.70
2019,06,24,11,52,20.70
2019,06,24,11,53,20.50
2019,06,24,11,54,20.30
2019,06,24,11,55,20.20
2019,06,24,11,56,20.10
2019,06,24,11,57,20.10
2019,06,24,11,58,20.00
2019,06,24,11,59,19.90
2019,06,24,12,00,19.90
2019,06,24,12,01,19.90
2019,06,24,12,02,19.80
2019,06,24,12,03,19.80
2019,06,24,12,04,19.80
2019,06,24,12,05,19.80
2019,06,24,12,06,19.70
2019,06,24,12,07,19.60
2019,06,24,12,08,19.50
2019,06,24,12,09,19.50
2019,06,24,12,10,19.40
2019,06,24,12,11,19.50
2019,06,24,12,12,19.50
2019,06,24,12,13,19.50
2019,06,24,12,14,19.50
2019,06,24,12,15,19.50
2019,06,24,12,16,19.50
2019,06,24,12,17,19.60
2019,06,24,12,18,19.70
2019,06,24,12,19,19.80
2019,06,24,12,20,19.90
2019,06,24,12,21,20.00
2019,06,24,12,22,20.10
2019,06,24,12,23,20.20
2019,06,24,12,24,20.30
2019,06,24,12,25,20.40
2019,06,24,12,26,20.40
2019,06,24,12,27,20.40
2019,06,24,12,28,20.40
2019,06,24,12,29,20.50
2019,06,24,12,30,20.50
2019,06,24,12,31,20.60
2019,06,24,12,32,20.60
2019,06,24,12,33,20.70
2019,06,24,12,34,20.80
2019,06,24,12,35,20.90
2019,06,24,12,36,21.10
2019,06,24,12,37,21.20
2019,06,24,12,38,21.30
2019,06,24,12,39,21.40
2019,06,24,12,40,21.50
2019,06,24,12,41,21.60
2019,06,24,12,42,21.60
2019,06,24,12,43,21.60
2019,06,24,12,44,21.60
2019,06,24,12,45,21.60
2019,06,24,12,46,21.50
2019,06,24,12,47,21.50
2019,06,24,12,48,21.50
2019,06,24,12,49,21.50
2019,06,24,12,50,21.50
2019,06,24,12,51,21.50
2019,06,24,12,52,21.50
2019,06,24,12,53,21.40
2019,06,24,12,54,21.40
2019,06,24,12,55,21.50
2019,06,24,12,56,21.50
2019,06,24,12,57,21.60
2019,06,24,12,58,21.70
2019,06,24,12,59,21.70
2019,06,24,13,00,21.70
2019,06,24,13,01,21.80
2019,06,24,13,02,21.80
2019,06,24,13,03,21.80
2019,06,24,13,04,21.70
2019,06,24,13,05,21.70
2019,06,24,13,06,21.70
2019,06,24,13,07,21.70
2019,06,24,13,08,21.70
2019,06,24,13,09,21.70
2019,06,24,13,10,21.70
2019,06,24,13,11,21.70
2019,06,24,13,12,21.80
2019,06,24,13,13,21.80
2019,06,24,13,14,21.90
2019,06,24,13,15,22.00
2019,06,24,13,16,22.10
2019,06,24,13,17,22.10
2019,06,24,13,18,22.10
2019,06,24,13,19,21.90
2019,06,24,13,20,21.80
2019,06,24,13,21,21.50
2019,06,24,13,22,21.30
2019,06,24,13,23,21.10
2019,06,24,13,24,21.00
2019,06,24,13,25,20.90
2019,06,24,13,26,20.90
2019,06,24,13,27,20.90
2019,06,24,13,28,20.90
2019,06,24,13,29,20.80
2019,06,24,13,30,20.80
2019,06,24,13,31,20.80
2019,06,24,13,32,20.80
2019,06,24,13,33,20.90
2019,06,24,13,34,20.90
2019,06,24,13,35,20.90
2019,06,24,13,36,20.90
2019,06,24,13,37,21.00
2019,06,24,13,38,21.10
2019,06,24,13,39,21.20
2019,06,24,13,40,21.30
2019,06,24,13,41,21.20
2019,06,24,13,42,21.20
2019,06,24,13,43,21.20
2019,06,24,13,44,21.20
2019,06,24,13,45,21.20
2019,06,24,13,46,21.10
2019,06,24,13,47,21.00
2019,06,24,13,48,20.90
2019,06,24,13,49,20.90
2019,06,24,13,50,20.80
2019,06,24,13,51,20.70
2019,06,24,13,52,20.60
2019,06,24,13,53,20.60
2019,06,24,13,54,20.60
2019,06,24,13,55,20.70
2019,06,24,13,56,20.70
2019,06,24,13,57,20.80
2019,06,24,13,58,20.90
2019,06,24,13,59,20.90
2019,06,24,14,00,20.90
2019,06,24,14,01,20.90
2019,06,24,14,02,20.90
2019,06,24,14,03,20.90
2019,06,24,14,04,20.90
2019,06,24,14,05,21.00
2019,06,24,14,06,21.10
2019,06,24,14,07,21.20
2019,06,24,14,08,21.20
2019,06,24,14,09,21.20
2019,06,24,14,10,21.20
2019,06,24,14,11,21.20
2019,06,24,14,12,21.20
2019,06,24,14,13,21.20
2019,06,24,14,14,21.10
2019,06,24,14,15,21.00
2019,06,24,14,16,21.00
2019,06,24,14,17,21.00
2019,06,24,14,18,21.00
2019,06,24,14,19,21.10
2019,06,24,14,20,21.10
2019,06,24,14,21,21.10
2019,06,24,14,22,21.10
2019,06,24,14,23,21.10
2019,06,24,14,24,21.10
2019,06,24,14,25,21.10
2019,06,24,14,26,21.10
2019,06,24,14,27,21.10
2019,06,24,14,28,21.10
2019,06,24,14,29,21.00
2019,06,24,14,30,20.90
2019,06,24,14,31,20.80
2019,06,24,14,32,20.80
2019,06,24,14,33,20.90
2019,06,24,14,34,21.00
2019,06,24,14,35,21.10
2019,06,24,14,36,21.20
2019,06,24,14,37,21.20
2019,06,24,14,38,21.30
2019,06,24,14,39,21.40
2019,06,24,14,40,21.60
2019,06,24,14,41,21.60
2019,06,24,14,42,21.70
2019,06,24,14,43,21.70
2019,06,24,14,44,21.70
2019,06,24,14,45,21.60
2019,06,24,14,46,21.50
2019,06,24,14,47,21.30
2019,06,24,14,48,21.20
2019,06,24,14,49,21.00
2019,06,24,14,50,20.90
2019,06,24,14,51,20.80
2019,06,24,14,52,20.70
2019,06,24,14,53,20.70
2019,06,24,14,54,20.80
2019,06,24,14,55,20.70
2019,06,24,14,56,20.80
2019,06,24,14,57,20.80
2019,06,24,14,58,20.80
2019,06,24,14,59,20.70
2019,06,24,15,00,20.60
2019,06,24,15,01,20.50
2019,06,24,15,02,20.40
2019,06,24,15,03,20.30
2019,06,24,15,04,20.30
2019,06,24,15,05,20.20
2019,06,24,15,06,20.20
2019,06,24,15,07,20.20
2019,06,24,15,08,20.20
2019,06,24,15,09,20.20
2019,06,24,15,10,20.20
2019,06,24,15,11,20.10
2019,06,24,15,12,20.10
2019,06,24,15,13,20.00
2019,06,24,15,14,20.00
2019,06,24,15,15,19.90
2019,06,24,15,16,19.90
2019,06,24,15,17,19.90
2019,06,24,15,18,19.90
2019,06,24,15,19,19.90
2019,06,24,15,20,19.90
2019,06,24,15,21,19.90
2019,06,24,15,22,19.90
2019,06,24,15,23,20.00
2019,06,24,15,24,20.10
2019,06,24,15,25,20.30
2019,06,24,15,26,20.40
2019,06,24,15,27,20.60
2019,06,24,15,28,20.70
2019,06,24,15,29,20.80
2019,06,24,15,30,20.90
2019,06,24,15,31,21.00
2019,06,24,15,32,21.10
2019,06,24,15,33,21.20
2019,06,24,15,34,21.30
2019,06,24,15,35,21.40
2019,06,24,15,36,21.60
2019,06,24,15,37,21.60
2019,06,24,15,38,21.70
2019,06,24,15,39,21.80
2019,06,24,15,40,21.80
2019,06,24,15,41,21.70
2019,06,24,15,42,21.60
2019,06,24,15,43,21.50
2019,06,24,15,44,21.40
2019,06,24,15,45,21.20
2019,06,24,15,46,21.10
2019,06,24,15,47,21.00
2019,06,24,15,48,20.90
2019,06,24,15,49,20.90
2019,06,24,15,50,20.90
2019,06,24,15,51,21.00
2019,06,24,15,52,21.00
2019,06,24,15,53,20.90
2019,06,24,15,54,20.70
2019,06,24,15,55,20.70
2019,06,24,15,56,20.60
2019,06,24,15,57,20.60
2019,06,24,15,58,20.60
2019,06,24,15,59,20.70
2019,06,24,16,00,20.80
2019,06,24,16,01,20.80
2019,06,24,16,02,20.80
2019,06,24,16,03,20.90
2019,06,24,16,04,21.00
2019,06,24,16,05,21.00
2019,06,24,16,06,21.00
2019,06,24,16,07,21.10
2019,06,24,16,08,21.20
2019,06,24,16,09,21.10
2019,06,24,16,10,20.90
2019,06,24,16,11,20.80
2019,06,24,16,12,20.70
2019,06,24,16,13,20.70
2019,06,24,16,14,20.70
2019,06,24,16,15,20.60
2019,06,24,16,16,20.60
2019,06,24,16,17,20.60
2019,06,24,16,18,20.60
2019,06,24,16,19,20.60
2019,06,24,16,20,20.70
2019,06,24,16,21,20.80
2019,06,24,16,22,20.90
2019,06,24,16,23,20.90
2019,06,24,16,24,21.00
2019,06,24,16,25,20.90
2019,06,24,16,26,20.90
2019,06,24,16,27,20.90
2019,06,24,16,28,20.80
2019,06,24,16,29,20.80
2019,06,24,16,30,20.70
2019,06,24,16,31,20.70
2019,06,24,16,32,20.80
2019,06,24,16,33,20.80
2019,06,24,16,34,20.90
2019,06,24,16,35,21.00
2019,06,24,16,36,21.10
2019,06,24,16,37,21.10
2019,06,24,16,38,21.20
2019,06,24,16,39,21.20
2019,06,24,16,40,21.20
2019,06,24,16,41,21.30
2019,06,24,16,42,21.30
2019,06,24,16,43,21.30
2019,06,24,16,44,21.40
2019,06,24,16,45,21.40
2019,06,24,16,46,21.40
2019,06,24,16,47,21.50
2019,06,24,16,48,21.50
2019,06,24,16,49,21.60
2019,06,24,16,50,21.60
2019,06,24,16,51,21.60
2019,06,24,16,52,21.60
2019,06,24,16,53,21.70
2019,06,24,16,54,21.70
2019,06,24,16,55,21.70
2019,06,24,16,56,21.60
2019,06,24,16,57,21.60
2019,06,24,16,58,21.60
2019,06,24,16,59,21.50
2019,06,24,17,00,21.50
2019,06,24,17,01,21.50
2019,06,24,17,02,21.50
2019,06,24,17,03,21.50
2019,06,24,17,04,21.50
2019,06,24,17,05,21.40
2019,06,24,17,06,21.40
2019,06,24,17,07,21.30
2019,06,24,17,08,21.30
2019,06,24,17,09,21.30
2019,06,24,17,10,21.30
2019,06,24,17,11,21.30
2019,06,24,17,12,21.30
2019,06,24,17,13,21.30
2019,06,24,17,14,21.30
2019,06,24,17,15,21.40
2019,06,24,17,16,21.40
2019,06,24,17,17,21.40
2019,06,24,17,18,21.50
2019,06,24,17,19,21.50
2019,06,24,17,20,21.50
2019,06,24,17,21,21.60
2019,06,24,17,22,21.60
2019,06,24,17,23,21.60
2019,06,24,17,24,21.60
2019,06,24,17,25,21.60